Location: Newark
(43.0000°N, 1.6781°W)
Time: 15:11:50
(UTC+00:00)

PCSat - Pass Details

Date: 02 December 2022
Orbit: 785 x 793 km, 67.1° (Epoch: 05 February)

Event Time Altitude Azimuth Distance (km) Brightness Sun altitude
Exits shadow 05:59:16 21° 280° (W) 1,733 10.7 -14.2°
Maximum altitude 06:01:01 24° 252° (WSW) 1,576 10.7 -13.9°
Drops below altitude 10° 06:05:18 10° 200° (SSW) 2,352 12.0 -13.2°
Sets 06:08:05 0° 187° (S) 3,277 12.9 -12.7°
